Theta_e
320 324 326 327 326 324 325 325 323 325 326 325 323 323 325 321 319 321 321 322 326 325 328 332 328 329 334 337 341 342 342 344 344 343 345 344 345 346 347 348 348 348 348 348 348 348 348 349 349 349 349 349 350 349 350 350 350 351 351 350 350 350 351
320 320 324 326 326 327 325 322 323 325 325 325 323 320 321 320 319 324 325 321 319 321 330 337 331 329 334 336 340 342 341 343 343 343 344 344 345 346 347 348 348 349 348 348 349 349 349 349 349 349 349 349 350 350 350 351 350 351 351 350 350 350 351
322 320 321 322 325 327 325 324 325 326 323 321 321 320 320 320 320 323 326 324 321 321 329 335 329 327 334 337 340 341 342 342 343 344 344 344 345 346 346 348 348 348 349 348 348 349 349 349 349 349 350 350 350 350 350 350 350 351 351 350 351 350 351
319 321 319 317 319 323 325 325 325 327 325 321 321 322 320 322 324 323 322 321 322 325 330 331 328 328 332 338 341 342 341 342 342 343 345 344 345 346 346 348 347 348 349 348 349 348 349 350 349 350 350 350 351 350 351 351 351 350 351 350 351 351 351
319 323 322 319 319 321 322 322 321 323 324 322 322 322 322 325 328 328 323 318 322 334 337 331 332 331 330 337 342 341 339 341 342 343 344 344 345 346 346 347 348 348 349 348 349 349 348 349 349 350 350 351 351 351 351 351 351 351 351 351 351 351 351
321 323 322 321 323 322 322 322 321 321 322 321 320 320 323 324 326 330 326 317 323 338 337 329 334 334 330 333 339 341 339 338 341 343 344 345 345 346 346 347 348 348 349 349 348 349 349 349 349 350 351 351 351 352 351 351 352 351 351 351 351 351 351
319 319 320 320 321 323 324 323 322 324 324 321 318 319 323 320 321 329 327 318 325 343 342 333 332 331 326 327 333 338 339 338 341 342 343 345 345 346 347 347 348 348 348 349 349 349 349 349 350 350 350 351 351 352 351 352 351 351 351 352 351 351 352
321 320 321 322 321 324 324 323 323 323 323 322 322 326 327 322 319 323 322 318 324 344 351 341 334 331 327 325 329 335 336 338 341 341 342 345 345 346 346 346 347 348 348 350 350 349 349 349 350 350 349 351 351 352 352 352 352 352 352 352 352 351 351
329 321 321 326 327 323 320 321 323 322 324 324 325 329 327 322 320 320 320 317 324 343 355 344 339 338 334 327 326 331 335 338 340 341 343 344 345 346 347 346 348 348 349 350 349 350 350 349 349 350 350 350 351 351 352 351 352 352 352 352 352 352 352
328 323 323 324 323 318 316 320 322 322 324 322 322 325 321 320 324 322 319 319 325 338 342 334 334 337 337 333 325 325 331 336 340 342 342 343 345 345 346 346 347 348 349 349 350 350 350 350 350 350 350 351 351 351 352 352 352 352 352 352 352 352 352
319 319 319 316 316 315 315 318 319 319 322 321 324 324 320 324 328 322 321 323 324 327 330 327 330 331 337 339 330 324 328 334 339 343 342 343 345 345 346 346 347 348 349 349 349 350 350 351 350 350 350 350 351 351 352 352 352 352 352 352 353 352 352
314 314 315 313 313 314 314 316 316 318 321 323 323 320 322 331 326 319 329 336 324 322 327 327 328 330 336 344 338 327 326 332 339 342 344 344 345 345 346 347 347 348 348 349 350 350 350 351 351 350 350 350 350 351 351 352 352 352 352 353 353 353 352
312 312 312 312 312 313 314 317 318 320 322 324 323 321 325 332 323 320 339 347 330 324 329 328 329 333 335 338 336 328 327 335 340 343 345 345 345 346 346 347 348 348 348 349 349 349 350 350 350 350 350 350 351 351 351 352 352 352 353 353 352 353 353
311 311 311 312 313 315 316 318 320 322 324 325 325 324 327 331 329 330 342 348 336 327 327 328 329 330 329 331 333 331 333 338 342 343 345 345 345 347 346 347 348 348 348 349 349 350 350 350 350 350 351 351 351 351 352 352 352 353 352 353 353 353 353
311 311 313 314 314 314 316 319 324 327 329 327 323 324 328 329 330 334 338 340 337 333 336 339 335 331 333 336 337 336 336 340 343 343 344 346 346 346 347 347 348 348 348 349 350 351 350 350 351 350 350 351 351 352 352 352 353 353 353 353 353 353 353
312 311 312 313 312 315 320 323 327 330 333 330 326 330 335 332 330 335 336 334 336 338 343 347 342 339 345 349 344 338 336 339 343 343 344 345 346 346 348 348 348 348 348 349 349 350 350 350 351 349 350 351 351 352 352 352 353 353 353 354 354 353 353
314 312 311 312 316 322 329 329 325 328 334 337 338 341 340 338 338 339 335 334 338 340 342 346 345 342 344 344 340 337 339 341 342 343 344 346 345 347 348 347 348 348 348 349 350 349 350 349 350 349 349 350 351 351 352 353 353 353 354 354 353 353 353
314 312 311 318 327 332 334 331 324 324 330 336 339 341 338 337 340 339 338 340 342 341 343 345 343 341 342 343 340 337 339 341 341 342 344 345 345 347 347 347 348 348 348 348 349 349 349 348 348 348 349 350 350 351 352 353 353 353 354 354 354 353 353
314 313 316 329 341 336 330 329 324 323 326 329 334 340 338 336 338 338 340 342 342 345 346 337 336 343 350 351 348 344 341 340 343 343 343 344 346 345 346 348 348 347 348 348 349 349 349 348 348 349 349 350 350 351 351 352 352 352 353 353 354 353 352
315 316 319 328 335 330 326 327 325 323 325 326 330 338 340 337 335 337 340 341 341 348 349 338 336 346 352 352 354 352 348 341 341 343 342 344 346 345 346 348 347 348 348 348 348 348 348 348 349 349 349 350 350 350 351 351 351 352 352 353 353 352 353
316 317 316 319 327 331 331 330 325 322 324 325 327 335 340 337 334 335 338 340 341 347 349 344 341 344 351 357 359 357 355 348 342 342 343 343 344 345 346 346 346 347 347 347 348 348 348 348 348 347 348 349 349 350 350 351 352 352 352 353 352 352 353
316 315 315 319 330 338 335 328 323 322 325 325 324 331 340 338 333 333 337 340 342 345 347 347 346 349 360 366 361 358 360 356 347 343 344 341 342 343 343 345 346 346 346 346 348 348 348 347 347 347 348 348 349 350 351 351 352 353 353 353 353 353 353
312 312 314 319 327 334 330 324 323 324 327 326 326 336 344 338 332 333 336 339 341 343 346 348 351 358 366 367 360 357 361 361 356 351 347 344 343 343 343 343 343 344 345 345 346 347 347 348 348 348 348 349 350 350 351 352 353 353 353 353 353 354 354
312 313 315 318 325 330 326 323 325 327 327 327 333 344 346 335 330 331 334 337 340 342 344 348 353 359 364 364 359 357 358 360 360 359 356 352 349 347 346 345 344 344 344 345 345 347 348 348 349 348 348 348 349 349 350 351 352 352 353 353 353 355 355
313 315 314 315 324 329 324 323 327 327 328 333 340 344 338 331 329 330 331 335 337 339 344 348 351 356 359 358 357 356 355 357 357 357 358 359 358 356 354 353 351 349 349 348 349 351 351 350 350 350 349 350 351 351 351 352 353 353 354 354 356 356 357
314 314 313 316 324 327 324 325 327 327 330 336 337 335 331 328 328 329 329 331 333 336 340 344 346 351 354 355 355 354 353 353 352 352 353 354 357 359 361 360 358 357 356 356 356 356 357 357 356 354 355 354 355 356 357 357 357 358 359 361 360 361 361
315 313 314 320 326 326 324 327 327 326 328 330 328 328 328 327 327 327 327 329 331 332 336 339 342 347 350 351 352 351 350 350 350 349 349 349 350 351 353 356 357 359 359 358 358 359 359 359 360 359 360 359 360 360 359 360 359 360 361 363 363 363 364
316 317 320 322 323 323 324 327 327 324 322 322 323 325 327 326 325 325 326 327 329 328 330 334 339 343 347 349 351 351 350 349 348 348 348 349 348 346 344 344 344 347 349 349 350 352 351 353 356 358 358 361 360 361 361 361 362 362 362 363 364 365 365
315 317 320 320 320 322 322 323 324 322 320 319 319 321 323 323 322 322 323 325 327 324 324 330 335 338 342 347 349 351 351 349 348 347 346 348 350 349 347 344 339 337 338 337 338 338 339 340 344 346 350 353 355 357 359 359 360 362 361 361 363 363 363
314 315 316 315 318 322 320 319 320 320 318 317 317 318 320 320 319 319 320 324 327 325 322 327 332 333 336 344 347 349 351 350 348 347 346 347 349 350 349 349 346 341 337 334 333 333 333 335 336 336 338 341 344 347 350 351 354 357 358 359 360 360 360
314 316 316 312 314 319 320 317 318 317 315 314 315 317 318 317 318 318 318 321 328 328 323 324 326 326 331 338 342 345 348 350 349 348 347 347 348 350 351 352 351 348 342 337 335 335 335 335 336 335 334 336 339 341 341 342 345 347 349 352 355 356 358
312 314 313 311 313 318 318 316 317 318 315 313 314 315 316 316 316 318 317 318 325 328 325 322 320 321 326 334 339 341 344 346 348 349 349 349 348 348 350 350 351 350 347 345 343 341 339 338 338 337 337 340 345 348 349 349 349 348 348 348 348 349 352
310 310 312 312 314 315 315 314 316 317 316 315 313 313 314 315 315 316 317 317 320 322 322 320 318 319 323 330 335 339 341 342 345 347 348 350 349 348 348 349 349 349 348 347 346 344 341 340 338 336 337 339 343 348 353 356 356 355 355 352 350 350 350
310 310 311 313 312 312 312 313 314 315 316 316 314 312 314 315 315 316 319 319 317 317 318 318 316 317 320 324 328 334 338 341 343 345 346 348 348 349 348 348 348 348 346 346 346 344 342 339 336 334 334 333 336 343 353 359 359 358 358 357 355 355 355
310 310 310 311 311 310 310 311 312 313 315 316 315 313 313 315 315 316 319 322 320 316 315 316 316 315 316 318 321 326 334 339 341 344 346 347 347 348 349 348 347 347 346 345 344 343 342 340 338 338 338 337 339 343 350 357 359 360 361 359 358 359 359
309 309 309 309 310 310 310 311 312 312 313 315 317 315 313 313 314 314 316 320 322 318 314 314 316 314 314 316 318 320 326 333 338 341 344 346 347 348 348 348 348 347 347 345 344 343 343 343 344 345 345 344 345 347 349 353 358 361 363 362 361 360 360
308 309 309 309 309 310 310 310 311 311 311 314 316 315 313 313 314 314 314 316 318 317 315 314 314 314 314 315 317 318 320 324 332 338 342 344 345 346 347 348 348 348 348 347 347 345 344 344 344 346 348 349 348 348 349 351 356 360 362 363 363 362 362
Wind_Speed
11 13 10 10 12 6 4 7 10 6 5 5 4 4 1 3 4 6 3 4 4 2 6 3 5 9 12 17 23 26 29 34 33 30 34 38 40 43 46 49 51 50 50 51 51 52 52 53 54 55 55 55 55 55 55 54 52 51 50 48 47 45 43
11 13 12 10 13 10 4 6 8 4 5 4 4 3 3 2 5 5 3 5 5 3 6 3 6 8 9 13 17 19 24 29 30 33 38 42 43 45 48 51 50 49 50 50 51 52 53 55 55 56 56 55 55 56 55 54 53 53 51 50 48 46 45
8 9 9 8 11 14 10 6 7 7 4 6 5 4 5 5 4 5 4 5 5 5 5 5 7 9 9 12 14 17 18 21 26 33 39 44 45 46 46 46 45 46 49 51 52 53 53 54 55 55 55 55 55 55 55 55 54 53 51 50 49 48 46
9 7 5 7 9 12 11 6 7 7 6 6 6 4 3 4 4 4 4 5 5 6 5 8 10 10 11 11 12 14 15 19 27 34 38 41 43 43 44 45 45 48 50 52 53 54 53 53 53 53 53 53 54 55 55 55 54 52 52 51 50 49 47
7 4 4 6 7 7 8 7 7 7 4 3 5 3 3 4 4 3 3 5 6 5 5 9 11 10 10 12 13 13 15 23 32 37 39 42 43 45 46 47 48 50 50 51 52 52 52 51 51 51 52 53 53 54 54 54 54 53 53 52 51 50 48
4 7 7 4 3 4 5 6 7 8 5 4 6 6 2 4 4 4 4 6 8 5 5 8 10 10 9 12 14 12 16 27 35 39 43 45 45 47 48 49 50 50 50 51 50 49 49 49 49 50 51 52 52 53 53 53 53 53 53 53 52 51 48
8 17 17 13 12 10 7 6 7 8 5 5 7 8 4 4 4 3 2 5 8 6 6 8 9 10 9 13 15 12 17 30 37 41 45 47 48 51 51 50 51 50 51 52 50 48 49 49 50 51 51 51 52 53 53 53 53 53 53 52 51 50 49
9 15 13 11 11 6 4 5 4 6 8 8 6 5 5 4 5 4 3 7 9 6 4 6 7 7 5 11 18 17 18 28 36 41 43 44 47 50 50 50 49 49 49 48 47 48 49 49 49 50 51 51 51 52 52 52 53 53 53 52 51 50 49
6 7 4 4 5 4 3 5 5 7 10 11 6 1 3 6 8 8 6 9 9 5 3 3 3 4 3 6 18 23 22 26 34 38 38 41 44 47 47 47 45 44 45 46 47 49 50 50 50 50 51 51 51 52 52 52 53 52 52 52 51 50 49
4 5 3 3 5 6 7 7 8 10 9 10 8 4 4 7 7 8 8 10 8 7 7 7 6 4 5 7 14 23 26 29 33 35 37 40 43 44 45 44 44 44 45 48 49 50 52 51 50 51 51 51 51 51 52 53 52 52 52 51 51 50 49
6 6 8 9 8 8 10 12 14 15 13 11 7 6 7 6 5 6 9 7 7 11 12 12 10 8 8 8 9 14 22 28 30 34 39 41 43 44 44 44 44 44 46 49 49 50 52 52 51 51 51 51 51 51 51 52 52 52 52 51 51 51 50
9 10 15 17 13 11 13 14 17 18 16 11 8 10 9 8 6 6 7 4 7 15 17 14 11 9 9 9 8 12 22 28 29 33 38 40 42 42 42 42 43 45 47 49 50 51 52 52 51 51 50 51 51 51 51 51 51 51 51 51 51 51 50
12 14 16 16 13 12 13 15 16 19 18 13 11 12 8 10 9 9 6 7 10 14 16 13 10 9 10 11 12 17 23 24 25 31 34 35 38 39 40 42 44 46 48 49 50 51 52 52 51 50 50 50 50 50 51 51 51 51 51 51 51 50 50
15 16 14 12 10 9 12 15 16 17 18 16 13 11 9 11 9 7 7 10 12 14 13 11 9 9 10 11 11 13 17 20 24 29 32 33 36 39 41 44 46 48 50 50 51 51 52 52 51 51 51 51 51 51 50 50 50 50 50 50 50 50 50
13 13 8 8 9 10 12 14 12 13 13 13 12 9 8 8 6 4 5 8 10 9 7 7 8 8 7 8 9 12 19 24 27 29 30 32 35 39 42 45 47 49 49 48 48 49 51 52 52 52 52 52 52 50 50 49 49 49 49 49 49 49 49
9 8 7 13 16 12 10 8 11 15 9 3 5 3 1 2 5 6 5 5 7 6 5 5 5 6 4 8 8 11 17 23 27 29 30 32 35 38 42 45 47 48 46 46 46 48 50 51 51 52 52 51 51 51 50 49 47 47 47 48 48 48 48
6 6 11 16 13 8 6 3 9 14 11 8 7 9 11 7 1 5 5 6 5 7 8 6 3 3 4 6 5 9 15 21 28 32 32 35 38 40 43 45 46 47 46 47 48 49 50 51 51 51 51 51 52 51 50 48 46 46 46 47 47 47 46
5 9 14 11 2 1 4 1 8 12 11 11 11 9 10 11 6 2 3 5 7 9 8 6 5 3 1 3 3 5 13 20 27 31 33 37 39 40 43 45 46 47 47 47 48 48 49 49 49 49 49 50 49 48 47 47 46 46 46 46 46 46 45
4 8 9 3 5 3 5 1 7 10 8 7 7 5 11 15 13 11 8 8 10 9 6 3 2 1 8 18 18 7 6 18 24 28 31 35 38 39 41 42 43 44 45 46 45 46 47 47 46 46 47 47 46 45 46 46 46 46 46 46 46 45 45
3 3 4 1 4 7 9 4 6 11 9 10 9 7 13 18 15 13 12 12 12 9 5 6 4 6 4 20 26 21 6 12 21 24 28 32 36 38 40 42 44 44 44 45 46 46 45 44 43 44 45 45 45 45 45 45 45 45 46 46 46 45 44
2 2 3 3 5 8 5 1 6 10 6 9 9 4 8 14 13 13 12 12 13 10 8 11 11 14 6 13 20 26 19 1 15 20 23 26 30 34 37 40 42 43 43 44 44 43 42 41 41 42 43 44 44 43 42 43 43 44 44 45 45 44 43
1 2 3 3 3 3 1 3 10 10 8 8 8 4 2 10 15 17 13 12 14 10 10 15 16 10 3 7 11 22 24 13 8 13 16 19 23 26 30 33 34 35 35 36 37 38 38 38 39 39 40 41 41 41 41 41 42 43 44 44 44 44 42
2 2 2 2 3 3 4 10 16 18 15 11 6 2 3 9 17 21 17 12 13 12 13 16 12 2 6 3 7 17 23 21 18 16 15 15 18 20 22 25 26 27 29 30 31 33 34 35 36 37 37 37 38 39 40 40 41 43 44 44 43 42 41
4 4 3 2 3 4 8 12 17 25 27 15 2 3 4 9 17 23 20 15 15 17 18 15 8 6 7 3 6 15 21 26 28 27 24 20 19 19 19 20 22 24 25 26 26 26 28 30 31 31 31 32 34 37 38 39 41 42 43 43 42 41 40
5 5 3 3 3 2 8 15 21 28 24 8 4 4 5 11 18 22 21 19 20 21 20 14 9 11 14 14 17 22 26 30 32 32 32 30 27 25 23 22 23 23 24 24 24 23 23 24 26 26 27 28 30 32 35 37 38 38 39 39 40 41 41
3 4 2 4 3 1 9 18 23 22 11 1 3 7 10 14 18 20 21 22 24 25 23 18 15 19 24 24 26 29 31 32 32 31 32 33 32 31 30 28 28 28 28 27 26 24 21 21 21 22 23 25 26 28 30 32 32 32 33 35 36 38 39
2 3 2 2 2 5 15 18 15 11 7 3 8 11 13 17 20 21 22 23 26 29 28 23 21 25 28 27 28 30 31 32 31 30 29 29 30 30 30 28 27 28 29 28 25 23 21 20 19 18 19 20 21 24 27 28 27 28 30 32 33 35 36
1 1 0 1 2 6 14 11 4 7 10 12 16 15 14 20 25 26 26 27 29 31 31 27 24 26 28 27 28 29 30 31 31 29 27 26 26 26 27 25 23 23 24 23 21 19 17 16 16 15 16 16 17 19 20 22 24 26 28 29 31 33 34
2 3 3 3 3 6 12 10 7 11 13 16 21 21 19 23 27 28 29 30 29 31 32 29 25 29 31 29 28 28 28 29 29 29 27 25 24 24 23 22 21 20 20 19 17 15 13 12 12 13 13 15 15 15 16 17 19 20 22 25 27 29 31
5 6 4 4 6 6 10 12 12 14 14 14 16 19 20 22 26 28 29 30 29 30 30 30 29 33 34 31 30 28 26 27 27 27 27 25 23 22 21 20 19 18 18 17 15 14 12 9 8 8 9 11 12 13 14 16 17 18 19 21 23 25 26
6 2 3 10 9 2 9 11 11 13 15 15 13 13 16 19 22 25 27 29 30 29 28 29 32 34 34 33 32 29 27 26 25 25 25 24 23 22 21 19 17 16 16 16 14 12 10 7 6 5 5 6 7 8 10 12 14 16 18 20 21 22 23
7 5 7 16 14 3 10 10 8 8 12 14 12 11 14 17 19 21 23 25 27 27 27 29 30 31 32 32 31 30 28 26 24 23 22 21 20 20 20 18 16 16 16 15 13 11 9 7 4 2 3 4 5 6 6 7 8 9 12 15 17 19 20
9 8 7 11 9 2 5 11 11 6 7 9 11 12 13 14 16 18 19 20 21 22 24 26 27 28 29 29 28 27 26 25 23 21 19 18 18 18 18 17 16 16 16 14 13 12 10 8 5 2 2 4 6 6 6 7 7 7 7 9 11 14 16
6 5 3 6 5 4 7 12 14 11 7 5 7 12 11 10 12 13 14 15 16 17 19 21 23 25 25 25 25 25 24 23 23 21 18 17 17 17 17 17 16 16 16 16 15 14 13 10 7 4 4 6 8 9 9 8 8 8 7 7 8 11 14
9 13 15 15 12 13 17 17 15 15 11 5 4 9 9 7 6 8 9 10 13 15 17 18 19 22 22 21 21 22 21 21 20 19 17 17 16 16 16 16 16 17 17 17 17 16 15 13 10 7 5 5 7 9 11 11 10 8 8 8 8 9 12
19 24 25 23 21 21 23 21 18 16 13 5 1 5 9 9 8 8 8 9 10 13 16 17 17 20 21 19 18 18 18 18 17 16 15 14 13 13 13 13 14 15 14 15 15 15 15 14 13 10 8 6 5 5 8 11 11 9 7 7 9 10 10
26 30 28 26 28 32 31 28 25 22 16 6 1 4 9 11 10 10 10 9 10 12 16 17 18 20 21 18 16 15 14 15 15 14 13 11 10 10 11 10 11 11 10 10 10 11 13 15 14 12 11 10 9 8 6 7 10 11 9 8 8 10 10
Wind_Direction
215 206 197 180 186 189 176 189 205 207 145 148 214 241 214 119 188 234 232 238 263 271 268 276 132 178 195 198 204 204 204 205 204 204 204 206 206 204 205 206 207 206 205 205 205 205 205 205 206 207 208 209 210 211 212 214 216 217 218 220 221 222 223
253 229 207 201 197 179 153 198 198 133 100 170 201 232 267 186 212 255 268 238 238 214 246 254 127 161 196 199 200 204 202 197 197 200 202 205 206 206 207 207 207 205 204 205 205 206 207 206 207 208 208 210 210 212 213 214 215 217 218 220 221 223 223
298 277 217 217 210 199 205 195 159 144 173 201 184 199 229 212 227 273 285 260 226 199 224 217 178 181 192 199 202 205 203 194 196 200 202 204 205 206 207 207 206 205 205 206 206 207 208 208 208 208 209 209 210 212 214 215 217 219 220 221 221 223 224
326 308 211 212 218 210 209 185 157 171 192 196 187 187 191 196 225 247 278 284 239 222 211 187 198 201 186 189 199 204 203 196 197 200 202 203 203 204 206 205 205 206 206 206 207 207 208 208 208 208 208 209 210 211 213 214 217 218 220 221 221 222 224
323 263 204 207 211 210 208 198 189 193 189 175 198 212 150 161 202 202 230 265 254 248 211 182 199 207 188 184 191 201 203 198 198 201 202 202 202 203 205 205 205 206 206 206 207 207 207 207 207 207 208 209 210 211 212 214 215 216 218 220 221 223 224
310 252 267 293 296 280 237 216 207 205 194 148 184 227 209 164 195 181 186 248 263 252 203 186 198 203 194 189 191 196 201 199 200 202 203 202 201 203 205 205 205 205 205 205 206 205 205 206 206 207 208 209 210 211 212 214 215 216 218 220 221 223 224
266 262 270 283 288 284 266 246 223 205 195 166 186 217 213 188 210 180 149 256 269 253 206 199 209 212 200 191 193 196 201 201 201 202 204 202 201 204 205 205 205 204 204 204 203 203 203 205 206 206 208 209 210 211 212 213 214 217 219 221 222 223 224
277 270 265 266 269 265 268 280 253 216 214 201 200 205 181 183 212 193 208 259 265 268 228 211 228 243 219 188 193 199 202 203 204 204 204 201 201 204 204 204 204 203 203 202 201 201 202 204 206 206 208 209 210 211 212 213 215 217 220 221 222 223 225
296 277 258 279 322 10 344 301 289 270 240 211 199 128 154 207 209 183 196 242 253 276 288 266 278 281 272 208 205 209 207 204 205 204 202 200 201 202 203 202 202 201 200 200 201 201 202 204 205 206 207 209 210 211 212 214 216 217 218 219 221 223 225
268 251 245 295 328 337 314 291 292 300 281 233 209 147 170 223 206 176 201 236 258 287 287 280 285 271 271 254 224 219 216 210 205 200 197 199 200 201 201 200 199 198 199 201 202 202 202 203 205 206 207 209 210 211 213 215 216 217 218 219 221 223 225
256 261 284 290 286 288 288 291 293 295 295 275 235 181 189 201 174 191 218 229 261 273 263 257 262 263 268 266 240 224 220 213 203 195 194 196 198 200 200 197 196 196 197 200 202 202 202 204 205 206 208 209 210 211 213 215 216 217 218 219 221 223 224
261 267 281 283 280 273 269 277 284 282 283 281 252 225 202 155 153 226 239 195 223 253 257 254 256 261 267 261 240 221 217 210 199 192 191 193 195 196 196 194 194 195 197 200 202 202 203 204 205 206 208 209 211 212 213 215 215 216 217 219 220 221 222
280 277 279 275 266 261 260 264 269 272 274 267 250 241 206 158 181 226 220 183 209 241 254 253 249 251 256 250 235 225 218 204 188 184 187 190 191 191 191 192 194 195 197 200 201 202 203 203 204 206 207 209 210 212 213 214 215 216 217 219 220 221 222
294 286 279 266 260 273 283 276 267 268 267 257 249 243 207 179 193 208 186 192 218 238 246 248 256 268 263 249 237 225 209 190 179 181 186 188 188 188 190 191 194 197 199 201 202 201 201 203 204 205 207 209 210 211 212 213 214 216 217 218 220 221 223
299 294 288 285 296 302 290 279 285 294 276 246 233 229 211 192 188 176 170 202 234 251 252 250 274 299 278 229 215 210 200 188 180 182 186 187 187 189 190 191 195 198 200 201 200 199 201 204 205 207 209 210 210 211 212 213 214 215 216 218 220 222 225
291 298 329 321 318 311 283 283 327 332 323 244 190 149 83 221 191 158 150 203 245 282 302 276 291 335 282 215 200 203 201 190 182 183 186 187 188 189 190 192 196 198 198 199 199 200 202 205 206 208 210 209 209 211 212 212 213 214 216 219 221 224 227
277 303 328 317 317 314 273 294 357 345 351 24 51 57 32 357 210 160 185 225 264 307 306 277 270 334 282 239 202 196 198 191 187 187 188 188 190 191 192 194 196 197 199 200 202 203 204 206 209 211 211 211 212 212 211 211 212 213 216 219 222 225 228
286 309 316 309 301 172 236 147 29 354 354 25 43 56 33 10 15 30 246 259 301 307 284 257 240 242 343 52 71 194 201 196 193 192 192 191 192 193 194 196 198 199 201 203 204 205 207 210 212 213 213 214 215 213 211 211 213 214 216 219 222 226 229
285 308 321 314 157 191 283 339 28 356 347 12 23 52 40 24 13 359 340 323 317 301 277 302 304 196 77 66 55 41 215 208 202 196 194 194 194 194 195 197 199 201 201 202 204 207 209 211 213 213 214 215 215 214 214 213 214 215 218 221 224 227 229
280 309 333 224 212 300 313 304 353 355 355 355 354 20 29 19 9 357 344 328 321 312 322 2 319 257 45 55 45 30 13 217 212 203 198 197 196 196 197 199 202 204 205 206 207 209 211 212 213 215 215 215 215 215 216 215 215 217 219 222 225 227 229
236 291 301 277 284 313 322 308 345 341 327 331 337 351 13 9 5 356 342 330 330 332 347 347 302 268 306 37 28 17 22 138 211 209 204 203 200 199 200 202 204 207 208 209 210 211 212 213 216 217 217 216 215 215 215 216 217 218 220 222 225 227 229
259 336 321 319 300 280 266 337 323 302 270 287 294 258 348 2 360 354 347 340 339 345 357 340 309 285 3 34 3 8 26 58 148 184 195 201 200 200 201 202 204 205 206 208 209 210 213 214 215 217 216 215 215 215 216 217 217 218 221 223 226 227 229
302 316 299 299 263 250 313 330 319 309 309 306 277 209 32 360 353 352 350 346 349 359 2 342 322 359 81 42 347 13 34 61 92 121 146 170 184 189 193 197 199 201 203 205 207 208 211 212 213 214 215 215 216 217 218 219 218 220 222 224 227 228 230
252 257 259 268 245 267 317 325 316 311 313 313 292 106 36 350 346 349 348 350 358 4 4 355 355 74 86 68 31 38 51 66 79 94 107 123 146 160 168 178 184 188 192 195 197 200 205 209 212 214 217 218 220 222 222 221 220 223 226 227 228 230 232
246 242 247 277 256 266 317 319 316 313 310 316 78 66 360 340 344 350 353 356 359 2 8 12 26 59 71 72 63 59 65 70 73 81 92 102 115 127 136 148 158 164 169 173 176 180 189 200 206 211 215 218 222 224 224 224 227 231 232 231 230 231 232
242 223 236 282 260 350 336 322 324 330 334 55 48 358 349 347 347 350 357 4 6 7 11 17 32 58 69 69 64 61 63 66 69 74 83 92 101 111 119 127 136 142 144 149 153 156 163 176 187 195 203 210 217 222 225 229 235 240 239 236 235 235 235
233 218 236 286 251 356 352 335 333 3 31 6 341 347 353 360 1 357 359 8 13 13 11 10 25 51 61 61 62 62 60 62 66 69 73 80 88 99 108 114 122 130 133 135 138 141 147 157 164 174 187 198 208 217 224 231 237 240 240 239 238 238 238
7 191 230 349 274 346 8 6 21 63 49 19 12 11 2 5 9 5 0 4 12 16 11 4 17 41 50 53 59 60 58 59 61 63 65 68 74 85 93 99 109 120 124 124 127 132 140 152 161 171 180 188 197 206 215 225 231 236 239 239 239 239 240
311 263 277 347 16 31 40 48 69 69 51 28 22 21 14 10 10 8 2 1 9 19 12 2 13 34 40 47 55 58 58 59 57 58 61 62 66 73 80 87 96 106 110 114 119 124 130 143 161 176 186 194 200 207 212 220 227 232 236 238 239 240 241
288 266 272 5 35 72 67 54 60 65 49 21 12 18 21 17 10 7 5 2 8 19 12 360 9 27 34 40 48 51 55 57 54 54 57 59 62 67 70 76 84 92 101 107 113 117 120 128 145 164 182 196 207 216 222 225 229 233 236 238 240 240 241
308 303 353 347 338 121 100 58 57 70 51 24 12 15 18 16 9 6 7 6 11 20 16 4 7 21 30 34 38 41 44 48 49 50 51 54 58 62 65 69 74 81 90 97 101 105 108 112 126 151 174 190 205 220 230 232 233 235 238 240 241 241 241
310 299 309 321 316 181 113 54 40 79 59 32 18 10 9 11 9 3 5 11 14 19 18 9 5 15 26 30 32 35 35 37 41 44 47 50 54 58 63 66 68 72 75 78 80 83 85 85 87 129 193 206 213 221 236 247 247 244 242 241 241 241 241
300 289 304 326 323 189 93 24 10 33 60 37 13 3 4 10 11 5 4 9 13 16 20 13 3 8 21 27 29 32 31 30 32 36 41 46 50 54 60 63 64 64 62 61 58 55 54 54 45 15 279 254 247 242 245 257 265 265 257 248 243 239 237
282 264 297 343 338 286 300 328 336 345 16 38 5 360 8 19 24 21 12 5 4 12 21 17 5 5 16 24 28 30 28 26 26 28 30 35 41 49 57 60 60 58 55 52 48 41 35 29 18 352 300 275 264 255 251 254 263 268 266 261 251 239 234
273 271 281 294 293 281 283 290 298 319 342 359 351 1 12 14 17 27 26 13 5 4 9 12 7 7 13 21 27 29 26 22 22 25 26 28 33 41 49 53 55 54 51 50 45 36 29 22 16 6 336 296 270 255 248 247 252 261 265 263 258 246 238
278 278 283 289 285 278 281 286 289 305 327 344 38 15 5 353 350 1 7 7 5 358 356 359 4 7 11 18 24 26 23 18 15 18 22 26 33 39 43 49 56 57 55 52 45 36 30 27 25 25 19 2 333 291 261 248 246 250 256 260 259 254 248
274 277 279 282 280 278 280 284 286 290 297 301 91 30 357 348 350 352 347 346 351 353 353 356 359 3 7 13 18 19 17 12 7 5 8 14 25 36 41 48 58 63 61 55 48 41 36 32 28 29 29 22 10 354 322 274 252 247 247 254 258 257 257